Flag for U.S.A. Weather past 2 weeks in Moreno Valley, California, U.S.A.

61 °F

Partly cloudy.

Feels Like: 61 °F
Forecast: 53 / 70 °F
Wind: 8 mph from Southeast

Location: Riverside / March Air Force Base

Current Time: Oct 4, 2015 at 10:11:15 PM

Latest Report: Oct 4, 2015 at 8:58 PM

Visibility: 10 mi

Pressure: 29.72 "Hg

Humidity: 89%

Dew point: 58 °F

Location of Moreno ValleyLocation

Historic Weather in Moreno Valley — Graph


Moreno Valley temperature yesterday

Maximum temperature yesterday: 84 °F (at 2:58 PM)
Minimum temperature yesterday: 56 °F (at 4:58 AM)
Average temperature yesterday: 69 °F

Past Weeks' High & Low Weather Summary

High101 °F (Sep 20, 2:58 PM)100% (Sep 23, 3:58 AM)29.96 "Hg (Sep 23, 3:58 AM)
Low56 °F (Oct 3, 4:58 AM)14% (Sep 20, 4:58 PM)29.54 "Hg (Oct 3, 3:58 PM)
Average75 °F55%29.82 "Hg
* Reported Sep 19 7:58 PM — Oct 4 7:58 PM, Moreno Valley, Weather by CustomWeather, © 2015

Note: Actual official high and low records may vary slightly from our data, if they occured in-between our weather recording intervals... More about our weather records


Moreno Valley weather history for previous 24 hours

Time TempWeatherWind HumidityBarometerVisibility
7:58 PM
Sun, Oct 4
62 °FOvercast.6 mph78%29.70 "Hg10 mi
6:58 PM63 °FPartly sunny.3 mph73%29.68 "Hg10 mi
6:00 PM63 °FBroken clouds.1 mph77%29.69 "Hg10 mi
5:58 PM63 °FDrizzle. Broken clouds.2 mph74%29.67 "Hg10 mi
4:58 PM64 °FPassing clouds.6 mph80%29.65 "Hg10 mi
4:02 PM64 °FPartly sunny.No wind73%29.68 "Hg10 mi
3:04 PM63 °FPartly sunny.3 mph83%29.67 "Hg10 mi
2:58 PM63 °FDrizzle. Partly sunny.3 mph84%29.64 "Hg10 mi
1:58 PM60 °FScattered showers. Broken clouds.3 mph95%29.66 "Hg10 mi
1:00 PM61 °FLight rain. More clouds than sun.8 mph94%29.68 "Hg7 mi
12:03 PM61 °FCloudy.8 mph88%29.68 "Hg10 mi
10:58 AM61 °FBroken clouds.7 mph92%29.66 "Hg10 mi
10:03 AM61 °FCloudy.12 mph100%29.68 "Hg10 mi
8:58 AM64 °FPartly sunny.10 mph96%29.62 "Hg10 mi
7:58 AM62 °FBroken clouds.9 mph100%29.60 "Hg10 mi
6:58 AM62 °FPassing clouds.9 mph100%29.59 "Hg10 mi
6:01 AM63 °FDrizzle. Mostly cloudy.8 mph100%29.63 "Hg10 mi
5:58 AM62 °FDrizzle. Overcast.8 mph100%29.59 "Hg10 mi
4:58 AM64 °FOvercast.12 mph85%29.58 "Hg10 mi
3:58 AM64 °FOvercast.8 mph83%29.59 "Hg10 mi
2:58 AM65 °FOvercast.7 mph80%29.59 "Hg10 mi
1:58 AM64 °FPartly cloudy.9 mph87%29.60 "Hg10 mi
1:03 AM64 °FOvercast.9 mph88%29.63 "Hg10 mi
12:58 AM64 °FOvercast.9 mph87%29.59 "Hg10 mi
12:03 AM64 °FPassing clouds.12 mph88%29.63 "Hg10 mi
11:58 PM
Sat, Oct 3
64 °FPassing clouds.12 mph88%29.59 "Hg10 mi
10:58 PM63 °FClear.12 mph90%29.59 "Hg10 mi
Weather by CustomWeather, © 2015

See weather overviewHow to use our weather pages